EW9824 Weather Reports


Display with metric or nautical units.
time (UTC)temp
F
wind
direction
speed
MPH
gust
MPH
rain 1hr
in
rain 24hr
in
rain mn
in
humidity
%
barometer
mb
20260901160030 56 8 3.0 7.0 0.00 0.00 0.00 81 1013.7
20260901154528 56 25 4.0 9.0 0.00 0.00 0.00 82 1013.7
20260901151531 54 38 4.0 9.0 0.00 0.00 0.00 86 1013.6
20260901150107 52 36 4.0 8.0 0.00 0.00 0.00 88 1013.5
20260901144527 50 46 2.0 7.0 0.00 0.00 0.00 85 1013.4
20260901143030 50 143 0.0 2.0 0.00 0.00 0.00 83 1013.3
20260901141531 50 181 1.0 5.0 0.00 0.00 0.00 83 1013.2
20260901134530 47 170 1.0 4.0 0.00 0.00 0.00 87 1012.9
20260901133029 47 173 1.0 4.0 0.00 0.00 0.00 86 1012.8
20260901131530 47 180 1.0 4.0 0.00 0.00 0.00 85 1012.7
20260901130029 47 168 2.0 4.0 0.00 0.00 0.00 84 1012.6
20260901124531 48 189 2.0 4.0 0.00 0.00 0.00 83 1012.5
20260901121533 49 178 2.0 5.0 0.00 0.00 0.00 80 1012.5
20260901120030 49 162 2.0 4.0 0.00 0.00 0.00 80 1012.4
20260901113030 49 180 2.0 4.0 0.00 0.00 0.00 78 1012.5
20260901111532 50 168 2.0 6.0 0.00 0.00 0.00 77 1012.4
20260901104609 49 167 2.0 4.0 0.00 0.00 0.00 76 1012.5
20260901103031 50 180 2.0 4.0 0.00 0.00 0.00 74 1012.6
20260901100108 51 158 2.0 5.0 0.00 0.00 0.00 71 1012.6
20260901094529 51 166 1.0 4.0 0.00 0.00 0.00 71 1012.5
20260901093029 50 162 2.0 4.0 0.00 0.00 0.00 72 1012.5
20260901091607 50 170 2.0 6.0 0.00 0.00 0.00 72 1012.5
20260901090030 50 179 3.0 5.0 0.00 0.00 0.00 72 1012.4
20260901084602 50 149 2.0 4.0 0.00 0.00 0.00 71 1012.4
20260901083029 51 164 2.0 3.0 0.00 0.00 0.00 69 1012.6
20260901080030 52 162 2.0 4.0 0.00 0.00 0.00 68 1012.6
20260901073031 53 150 2.0 4.0 0.00 0.00 0.00 63 1012.4
20260901064531 55 153 3.0 6.0 0.00 0.00 0.00 58 1012.6
20260901063031 56 163 3.0 7.0 0.00 0.00 0.00 57 1012.7
20260901061530 57 154 3.0 7.0 0.00 0.00 0.00 55 1012.9
20260901054532 57 154 4.0 6.0 0.00 0.00 0.00 57 1012.9
20260901053031 57 156 3.0 5.0 0.00 0.00 0.00 58 1012.9
20260901050032 57 171 2.0 6.0 0.00 0.00 0.00 59 1012.9
20260901044532 59 138 2.0 4.0 0.00 0.00 0.00 57 1012.9
20260901043030 60 170 4.0 7.0 0.00 0.00 0.00 55 1012.7
20260901040030 60 158 4.0 7.0 0.00 0.00 0.00 59 1012.5
20260901034533 62 167 3.0 6.0 0.00 0.00 0.00 59 1012.5
20260901033033 65 167 2.0 4.0 0.00 0.00 0.00 53 1012.2
20260901031606 66 168 3.0 9.0 0.00 0.00 0.00 53 1012.2
20260901030033 66 167 4.0 6.0 0.00 0.00 0.00 54 1012.1
20260901023102 67 178 5.0 7.0 0.00 0.00 0.00 55 1011.9
20260901021607 68 178 4.0 6.0 0.00 0.00 0.00 53 1011.8
20260901020031 70 183 2.0 5.0 0.00 0.00 0.00 46 1011.8
20260901014529 71 171 4.0 7.0 0.00 0.00 0.00 44 1011.8
20260901013105 74 224 3.0 7.0 0.00 0.00 0.00 38 1011.7
20260901011531 76 250 5.0 10.0 0.00 0.00 0.00 36 1011.7
20260901010028 77 242 6.0 11.0 0.00 0.00 0.00 37 1011.7
20260901004529 78 252 4.0 8.0 0.00 0.00 0.00 39 1011.8
20260901003033 78 264 2.0 8.0 0.00 0.00 0.00 39 1011.8
20260901001530 79 238 3.0 7.0 0.00 0.00 0.00 38 1011.9
20260901000030 81 218 3.0 7.0 0.00 0.00 0.00 37 1012.0
20260831234530 80 234 0.0 5.0 0.00 0.00 0.00 35 1012.0
20260831233027 81 249 4.0 8.0 0.00 0.00 0.00 33 1012.1
20260831230033 82 205 3.0 6.0 0.00 0.00 0.00 32 1012.4
20260831224532 81 289 4.0 10.0 0.00 0.00 0.00 32 1012.6
20260831223033 82 304 5.0 11.0 0.00 0.00 0.00 33 1012.7
20260831221531 82 287 4.0 8.0 0.00 0.00 0.00 34 1012.9
20260831220030 81 255 3.0 9.0 0.00 0.00 0.00 35 1013.1
20260831213104 81 264 5.0 13.0 0.00 0.00 0.00 36 1013.4
20260831211533 80 263 5.0 11.0 0.00 0.00 0.00 37 1013.5
20260831210030 78 307 4.0 13.0 0.00 0.00 0.00 39 1013.6
20260831204529 77 305 7.0 16.0 0.00 0.00 0.00 39 1013.7
20260831203031 77 294 8.0 15.0 0.00 0.00 0.00 40 1013.9
20260831201532 76 325 5.0 13.0 0.00 0.00 0.00 41 1014.3
20260831200030 76 314 6.0 11.0 0.00 0.00 0.00 41 1014.5
20260831194528 76 296 4.0 11.0 0.00 0.00 0.00 41 1014.7
20260831193031 75 301 5.0 13.0 0.00 0.00 0.00 42 1014.9
20260831191530 74 303 3.0 9.0 0.00 0.00 0.00 45 1015.2
20260831190034 71 304 4.0 10.0 0.00 0.00 0.00 51 1015.8
20260831183031 70 292 3.0 7.0 0.00 0.00 0.00 55 1016.1
20260831181529 68 279 2.0 6.0 0.00 0.00 0.00 59 1016.5
20260831174527 64 236 1.0 5.0 0.00 0.00 0.00 64 1016.8
20260831171602 62 264 1.0 5.0 0.00 0.00 0.00 66 1017.1
20260831170031 61 276 0.0 4.0 0.00 0.00 0.00 68 1017.3
20260831164530 60 117 0.0 3.0 0.00 0.00 0.00 71 1017.5
20260831163030 58 296 0.0 2.0 0.00 0.00 0.00 76 1017.6
20260831161531 57 315 0.0 1.0 0.00 0.00 0.00 81 1017.8